Weather in Khoytobee

Russia / Republic of Buryatia     51°47′31″N   107°25′49″E
temp.,
°C
wind,
m/s
gust,
m/s
humid.,
%
clouds,
%
prec.,
mm/h
press.,
hPa
HPBL,
m
15 may, sat
sat1523:00+5ssw11500 0.0 101812
02:00+3s22550 0.0 101819
05:00+2sse11580 0.0 101713
08:00+8ssw24385 0.0 1016466
11:00+14w2424100 0.0 10141481
14:00+14nw893742 0.0 10161713
17:00+13nw6934100 0.0 10151712
20:00+10wnw2539100 0.0 1016193
16 may, sun
sun1623:00+7sw224675 0.0 101715
02:00+5wsw225861 0.0 101820
05:00+4sw236481 0.0 101743
08:00+10ssw354616 0.0 1015315
11:00+18sw7113194 0.0 10112094
14:00+19nw81031100 0.0 10102193
17:00+14nnw6957100 0.0 10121219
20:00+11wnw247189 0.0 1012217
17 may, mon
mon1723:00+8sw11855 0.0 101115
02:00+6ssw22905 0.0 100933
05:00+5ssw2393100 0.0 100642
08:00+11wsw2567100 0.0 1004433
11:00+12wnw41173100 1.1 10041396
14:00+14nw71058100 1.3 10051533
17:00+12nw71062100 0.1 10061242
20:00+9nw3871100 0.1 1009956
18 may, tue
tue1823:00+7nw4106561 0.1 1011538
02:00+5w2575100 0.1 1013155
05:00+4sw2280100 0.0 101351
08:00+8wsw2362100 0.0 1013937
11:00+12w253783 0.0 10101912
14:00+13w354281 0.0 10081741
17:00+14wsw354395 0.0 10051767
20:00+12nw245498 0.0 1003149
19 may, wed
wed1923:00+10nne2264100 0.1 100271
02:00+7ne1295100 8.4 1002141
05:00+6wnw1194100 0.9 100318
08:00+8nw3780100 1.0 1005885
11:00+8wnw3578100 0.1 1006774
14:00+12w235384 0.1 10041452
17:00+14ssw2347100 0.0 10011293
20:00+11ssw2264100 0.0 99866